Weather in Lutna

Russia / Bryansk Oblast     53°26′58″N   33°05′32″E
В апреле 2022 года жителям России запретили посещать сайт meteo.paraplan.net по решению Генеральной прокуратуры. Аудитория сайта уменьшилась в 10 раз. Владельцы сайта не видят смысла в поддержке погодного сервера в таких условиях. Сайт будет закрыт в октябре.
temp.,
°C
wind,
m/s
gust,
m/s
humid.,
%
clouds,
%
prec.,
mm/h
press.,
hPa
HPBL,
m
25 september, sun
sun2500:00+7nw61494100 5.1 10051390
03:00+7wnw61393100 8.6 10051232
06:00+7wnw61292100 1.4 1006911
09:00+6wnw51291100 1.9 1007809
12:00+6wnw51189100 0.1 1009860
15:00+8wnw51284100 0.4 1009931
18:00+9nnw2683100 0.1 1010246
21:00+8w3108073 0.1 1010326
26 september, mon
mon2600:00+7wsw31083100 0.0 1010306
03:00+8w3982100 0.0 1011321
06:00+7wsw2882100 0.0 1011216
09:00+9wsw2676100 0.0 1012243
12:00+13wsw245942 0.0 1012895
15:00+12wsw2472100 0.2 1011321
18:00+9ene1292100 0.6 101240
21:00+7ese229541 0.7 101244
27 september, tue
tue2700:00+7e22966 0.0 101132
03:00+7ese229813 0.0 101127
06:00+7se229941 0.0 101021
09:00+10ese239574 0.0 1010240
12:00+13se348198 0.0 1010745
15:00+13ese3679100 0.1 1009595
18:00+12ese41084100 0.0 1008657
21:00+11ese51286100 0.1 1007694
28 september, wed
wed2800:00+10ese51297100 3.2 1005617
03:00+10ese51198100 6.4 1003542
06:00+11ese51497100 3.9 1001730
09:00+11ese61396100 6.8 1000721
12:00+11ese51296100 1.6 1000734
15:00+11ese3797100 1.9 1000540
18:00+11se1499100 0.2 1001234
21:00+11wsw119997 0.3 100239
29 september, thu
thu2900:00+11w2498100 0.0 1004113
03:00+11w279763 0.2 1006253
06:00+8w249818 0.0 100799
09:00+10w25929 0.0 1009212
12:00+14wnw347433 0.0 1011853
15:00+16wnw225968 0.0 10121218
18:00+13sw1176100 0.0 101310
21:00+11se118197 0.0 101511